Location: Brno
(49.2000°N, 16.6330°E)
Time: 20:01:45
(UTC+02:00)

ISS - Visible Passes

Search period start: 14 May 2021 00:00
Search period end: 24 May 2021 00:00
Orbit: 417 x 422 km, 51.6° (Epoch: 14 May)

Date Brightness Start Highest point End Pass type
(mag) Time Alt. Az. Time Alt. Az. Time Alt. Az.
14 May -3.1 01:18:38 40° NW 01:19:29 54° N 01:22:49 10° ENE visible
14 May -3.7 02:53:06 10° WNW 02:56:30 80° NNE 02:59:53 10° ESE visible
14 May -2.8 04:30:10 10° W 04:33:05 27° SW 04:36:01 10° SSE visible
14 May -1.8 21:17:40 10° SSE 21:18:54 12° SE 21:20:09 10° ESE visible
14 May -3.8 22:51:50 10° SW 22:55:07 54° SSE 22:58:26 10° ENE visible
15 May -3.2 00:28:38 10° W 00:31:58 58° N 00:35:19 10° ENE visible
15 May -3.4 02:05:39 10° WNW 02:09:01 66° NNE 02:12:23 10° E visible
15 May -3.3 03:42:34 10° WNW 03:45:46 40° SSW 03:48:56 10° SE visible
15 May -3.3 22:04:36 10° SW 22:07:44 38° SSE 22:10:55 10° E visible
15 May -3.5 23:41:06 10° W 23:44:28 67° NNW 23:47:50 10° ENE visible
16 May -3.2 01:18:10 10° WNW 01:21:31 58° N 01:24:51 10° E visible
16 May -3.8 02:55:03 10° WNW 02:58:23 57° SSW 03:01:42 10° SE visible
16 May -2.7 21:17:34 10° SSW 21:20:25 26° SE 21:23:17 10° E visible
16 May -3.8 22:53:36 10° WSW 22:56:59 83° NNW 23:00:22 10° ENE visible
17 May -3.0 00:30:40 10° WNW 00:34:00 54° N 00:37:20 10° E visible
17 May -3.9 02:07:34 10° WNW 02:10:57 79° SSW 02:14:20 10° ESE visible
17 May -2.3 03:45:02 10° W 03:47:22 19° SW 03:49:48 10° S visible
17 May -3.9 22:06:10 10° WSW 22:09:31 76° SSE 22:12:54 10° ENE visible
17 May -3.0 23:43:09 10° W 23:46:28 54° N 23:49:48 10° ENE visible
18 May -3.3 01:20:06 10° WNW 01:22:52 56° WNW 01:22:52 56° WNW visible
18 May -3.7 21:18:49 10° SW 21:22:06 55° SSE 21:25:25 10° ENE visible
18 May -3.2 22:55:36 10° W 22:58:57 58° N 23:02:18 10° ENE visible
19 May -3.4 00:32:38 10° WNW 00:36:00 66° NNE 00:36:27 57° ENE visible
19 May -3.4 22:08:04 10° W 22:11:26 67° NNW 22:14:48 10° ENE visible
19 May -3.2 23:45:09 10° WNW 23:48:28 58° N 23:50:16 24° E visible
20 May -1.8 01:22:00 10° WNW 01:23:11 20° W 01:23:11 20° W visible
20 May -3.7 21:20:34 10° WSW 21:23:56 82° NNW 21:27:18 10° ENE visible
20 May -3.0 22:57:38 10° WNW 23:00:57 54° N 23:04:10 11° E visible
21 May -3.2 00:34:31 10° WNW 00:37:05 48° W 00:37:05 48° W visible
21 May -3.0 22:10:05 10° W 22:13:24 54° N 22:16:44 10° ENE visible
21 May -3.8 23:47:02 10° WNW 23:50:25 81° NNE 23:51:02 56° E visible
22 May -3.1 21:22:32 10° W 21:25:51 58° N 21:29:12 10° ENE visible
22 May -3.4 22:59:33 10° WNW 23:02:55 66° NNE 23:05:01 21° E visible
23 May -1.9 00:36:28 10° WNW 00:37:57 22° W 00:37:57 22° W visible
23 May -3.2 22:12:02 10° WNW 22:15:23 58° N 22:18:42 10° E visible
23 May -3.5 23:48:55 10° WNW 23:51:57 54° SW 23:51:57 54° SW visible
